This demonstration page uses our WeatherBlox Daily Observations layout. Learn more.

Left ArrowRight Arrow

44.8408, -93.29828

Hourly Observations for September 8, 2021

Temp ( °F °C ) Dew Point ( °F °C ) Humidity (%) Winds ( mph kmh ) Pressure ( in mb ) Visibility ( mi km ) Precip ( " mm )
12:53 am 00:53 Clear 63 17.2 49 9.4 60 60 W 6 9 29.80 1009 10 16 0.00 0.00
1:53 am 01:53 Clear 63 17.2 49 9.4 60 60 W 8 13 29.81 1009 10 16 0.00 0.00
2:53 am 02:53 Clear 62 16.7 48 8.9 60 60 WNW 9 15 29.82 1010 10 16 0.00 0.00
3:53 am 03:53 Clear 61 16.1 47 8.3 60 60 WNW 10 17 29.83 1010 10 16 0.00 0.00
4:53 am 04:53 Clear 60 15.6 48 8.9 65 65 WNW 10 17 29.84 1011 10 16 0.00 0.00
5:53 am 05:53 Clear 59 15 48 8.9 67 67 WNW 9 15 29.85 1011 10 16 0.00 0.00
6:53 am 06:53 Sunny 60 15.6 49 9.4 67 67 NW 14 22 29.86 1011 10 16 0.00 0.00
7:53 am 07:53 Sunny 61 16.1 50 10 67 67 NW 13 20 29.88 1012 10 16 0.00 0.00
8:53 am 08:53 Sunny 64 17.8 52 11.1 65 65 NW 10 17 29.90 1012 10 16 0.00 0.00
9:53 am 09:53 Mostly Sunny 66 18.9 52 11.1 61 61 NNW 17 28 29.90 1013 10 16 0.00 0.00
10:53 am 10:53 Mostly Sunny 69 20.6 53 11.7 57 57 NNW 21 33 29.91 1013 10 16 0.00 0.00
11:53 am 11:53 Partly Cloudy 71 21.7 53 11.7 53 53 NNW 15 24 29.91 1013 10 16 0.00 0.00
12:53 pm 12:53 Partly Cloudy 72 22.2 52 11.1 50 50 NW 17 28 29.91 1013 10 16 0.00 0.00
1:53 pm 13:53 Mostly Cloudy 74 23.3 53 11.7 48 48 NW 15 24 29.90 1013 10 16 0.00 0.00
2:53 pm 14:53 Partly Cloudy 74 23.3 51 10.6 45 45 NW 18 30 29.89 1012 10 16 0.00 0.00
3:53 pm 15:53 Partly Cloudy 75 23.9 51 10.6 43 43 NW 15 24 29.89 1012 9 14 0.00 0.00
4:53 pm 16:53 Mostly Cloudy 74 23.3 51 10.6 45 45 NW 20 31 29.90 1012 10 16 0.00 0.00
5:50 pm 17:50 Mostly Cloudy 70 21 54 12 57 57 N 18 30 29.90 1013 10 16 0.00 0.00
5:53 pm 17:53 Mostly Cloudy 69 20.6 55 12.8 61 61 N 15 24 29.93 1013 10 16 0.00 0.00
6:53 pm 18:53 Mostly Cloudy 70 21.1 51 10.6 51 51 NNW 10 17 29.93 1014 10 16 0.00 0.00
7:53 pm 19:53 Partly Cloudy 66 18.9 51 10.6 59 59 NNW 6 9 29.95 1014 10 16 0.00 0.00
8:53 pm 20:53 Partly Cloudy 65 18.3 51 10.6 61 61 NW 5 7 29.97 1015 10 16 0.00 0.00
9:53 pm 21:53 Mostly Clear 64 17.8 53 11.7 68 68 NW 5 7 29.97 1015 10 16 0.00 0.00
10:53 pm 22:53 Mostly Clear 62 16.7 53 11.7 73 73 WNW 5 7 29.98 1015 10 16 0.00 0.00
11:53 pm 23:53 Clear 60 15.6 53 11.7 78 78 NW 5 7 29.98 1015 10 16 0.00 0.00

Powered by AerisWeather